Wind_Speed
7 5 7 6 4 2 4 5 6 5 5 2 5 5 7 2 5 7 8 5 5 5 4 2 5 8 14 22 29 23 18 15 13 9 9 7 7 6 7 8 9 8 9
6 6 7 6 3 3 2 3 7 6 3 3 5 2 5 4 5 10 7 3 4 4 4 3 5 6 9 14 25 24 21 16 12 10 8 7 7 7 6 6 8 9 8
9 9 8 10 10 8 4 4 6 2 2 4 6 3 3 8 4 7 1 2 4 4 3 3 2 3 4 8 16 23 21 15 11 10 9 8 7 7 7 6 7 10 9
12 11 11 11 12 11 7 7 5 6 4 2 2 2 3 4 4 4 5 3 4 5 3 1 4 5 8 8 9 15 19 14 12 10 9 10 8 7 6 7 7 9 8
15 16 17 16 16 14 10 13 12 8 8 7 6 3 3 5 6 4 4 4 5 5 5 6 7 8 11 12 13 16 18 14 11 10 9 10 9 8 7 6 6 7 10
15 16 19 21 21 15 12 11 13 10 11 11 5 5 2 2 6 4 8 4 5 6 7 8 10 11 15 16 16 16 14 11 11 10 10 11 9 8 8 7 6 8 9
12 14 14 19 19 13 13 10 8 10 11 12 5 4 3 2 4 3 7 4 8 8 7 8 9 9 12 14 13 12 11 10 11 11 10 11 11 9 8 8 8 8 8
12 14 16 17 17 16 16 14 13 10 12 14 12 6 7 2 2 3 8 5 8 9 7 9 9 10 9 11 11 10 10 10 11 11 11 12 12 11 9 9 8 8 8
11 14 15 17 20 20 18 18 15 12 11 14 13 6 7 9 6 4 7 6 6 7 9 8 8 10 10 11 10 9 9 10 10 11 11 11 11 10 10 10 8 7 7
15 14 20 21 18 17 19 19 15 12 13 12 14 9 11 8 4 4 7 6 7 6 10 11 10 11 11 11 11 10 8 10 11 11 11 10 10 9 10 10 9 8 7
15 19 17 15 21 20 18 17 18 16 17 16 20 16 11 9 7 8 9 9 9 9 9 13 13 12 13 12 11 10 10 10 11 10 10 11 11 11 11 11 10 9 9
12 16 15 16 19 18 22 20 18 20 24 17 16 13 11 12 9 10 10 9 9 12 10 12 15 15 15 14 13 13 12 12 12 13 11 11 12 13 12 11 10 9 10
13 14 13 13 17 17 14 25 23 21 20 17 16 16 16 14 14 14 12 11 14 13 14 13 12 13 17 16 16 15 15 14 13 12 13 12 13 13 13 13 13 12 11
14 14 13 13 11 12 13 14 12 15 17 19 18 18 18 18 19 16 14 12 17 16 15 15 13 12 11 14 18 17 17 15 14 14 14 14 14 14 14 14 13 13 12
15 15 16 14 13 12 13 13 11 14 16 16 15 17 20 17 22 21 16 16 11 14 16 17 17 17 16 15 13 16 19 19 18 18 17 16 16 16 16 16 16 14 14
13 11 10 11 12 14 14 15 16 15 17 17 16 19 20 19 23 26 20 19 20 16 13 17 19 19 19 19 18 16 16 17 18 21 20 20 20 19 19 19 18 17 15
11 11 11 11 11 11 12 15 19 21 21 19 20 20 18 19 20 26 22 23 21 12 13 18 17 21 21 21 20 18 19 17 16 16 17 18 20 22 22 21 20 20 19
12 12 12 11 11 10 10 13 15 17 20 21 21 19 20 19 18 27 26 24 20 22 22 21 19 24 31 25 24 20 20 20 20 19 20 19 18 18 18 18 18 19 19
14 14 14 13 13 13 12 11 12 10 13 17 19 19 19 20 23 24 25 26 27 25 21 17 19 17 19 22 22 20 20 19 19 18 19 20 19 20 21 20 20 19 19
14 15 15 14 14 14 14 12 10 12 13 16 15 16 15 19 27 31 27 27 31 31 28 17 20 18 14 14 14 20 22 23 21 19 20 21 19 17 17 16 15 17 20
12 12 14 15 16 16 15 13 13 10 10 13 15 17 16 18 18 23 28 30 34 32 36 30 20 21 17 16 18 16 20 24 21 22 25 24 22 20 17 14 13 16 17
14 14 14 15 14 15 14 14 13 14 14 12 10 12 13 13 15 19 25 29 36 36 41 20 23 24 23 23 22 21 16 20 20 20 22 24 29 22 17 19 19 15 20
14 15 16 14 15 16 17 17 14 13 14 14 12 10 8 11 13 19 22 29 32 34 40 35 28 26 30 30 26 24 23 23 23 23 23 23 25 21 21 20 20 19 14
16 16 16 17 17 18 18 21 20 18 17 16 15 13 13 10 10 12 9 16 19 20 34 35 31 28 26 27 27 24 27 28 24 22 18 18 26 22 20 21 19 19 20
20 20 19 20 21 21 22 24 26 26 23 21 17 15 14 14 12 12 11 12 12 13 23 32 28 25 23 23 22 19 20 25 29 26 20 18 20 22 23 25 23 24 28
23 24 23 22 19 19 22 25 29 32 31 29 25 24 19 17 18 16 13 10 11 16 19 18 30 28 28 27 25 24 29 27 27 22 22 21 23 26 26 25 26 29 29
Wind_Direction
208 224 224 228 243 239 266 216 193 196 255 312 236 183 94 250 249 238 243 306 323 343 305 188 181 253 249 243 221 193 199 193 187 182 158 155 153 148 154 161 162 155 164
209 213 207 209 245 255 288 185 189 185 171 192 237 215 199 344 216 205 209 262 339 338 307 286 237 213 222 230 230 195 191 190 198 178 149 158 157 152 151 148 168 166 125
229 222 220 233 244 251 233 209 181 187 182 263 219 23 261 359 57 231 43 299 326 339 276 261 283 178 176 174 214 208 178 184 175 167 159 161 164 158 151 155 144 154 150
220 228 234 242 247 253 248 228 224 243 261 306 54 146 60 336 18 28 164 209 290 314 206 175 212 157 161 157 196 212 175 180 176 175 163 161 172 157 148 152 147 162 181
222 221 228 234 244 251 259 229 211 226 253 270 296 254 251 331 338 314 222 197 241 247 164 156 167 150 131 128 143 160 168 176 178 170 163 166 173 160 154 147 149 144 164
228 240 238 240 240 244 240 245 231 249 253 242 279 321 246 52 351 321 208 179 198 166 167 160 152 147 130 126 132 141 159 171 174 171 177 172 175 166 160 152 149 150 143
252 247 247 252 255 249 239 235 254 261 263 286 241 14 168 77 316 319 194 207 172 178 172 164 147 138 135 133 143 153 168 176 173 172 176 179 183 181 167 164 163 161 171
255 255 249 252 246 251 246 242 241 243 272 275 296 258 266 262 262 258 191 194 187 190 182 181 158 152 152 148 153 163 171 174 172 173 177 188 191 185 173 176 177 170 178
290 250 274 257 249 248 243 252 248 267 282 271 283 243 264 267 297 225 195 193 200 202 195 178 172 171 170 163 159 164 167 163 165 165 167 179 185 184 179 186 186 185 191
284 277 254 275 253 254 258 249 250 255 270 281 275 236 253 283 300 269 212 211 199 197 202 187 188 184 180 177 177 179 183 178 172 173 171 179 182 187 190 191 194 199 199
276 274 284 269 261 255 250 251 245 255 266 277 282 254 228 237 255 267 218 232 214 202 201 197 200 198 192 190 190 190 186 183 174 174 178 183 185 189 193 195 197 202 201
283 261 271 266 263 258 249 256 251 255 257 260 276 259 235 233 226 248 238 236 232 213 201 193 200 205 201 199 195 195 189 187 183 179 183 185 186 186 187 189 187 193 195
280 266 267 276 281 274 258 258 254 250 244 250 258 256 251 242 234 236 232 239 230 222 213 204 195 205 209 203 202 198 195 194 197 196 193 193 192 191 190 190 192 195 200
275 277 273 272 267 257 253 257 246 235 231 243 253 241 252 244 232 240 236 242 243 205 216 217 205 201 199 207 210 205 202 200 202 209 214 211 209 205 201 204 211 215 217
275 276 280 269 263 255 247 252 243 238 242 244 244 249 246 242 239 237 232 240 239 220 219 221 215 212 211 205 200 212 212 209 211 215 220 224 222 219 218 216 215 220 227
276 286 286 273 269 262 259 252 249 244 243 240 245 248 247 252 244 230 227 230 233 228 221 230 225 221 222 217 210 210 216 208 213 221 223 225 229 230 230 232 236 237 236
275 275 280 283 280 270 278 270 260 255 248 253 255 253 259 266 250 223 228 230 231 229 225 244 241 232 221 226 219 213 221 225 214 216 220 225 230 235 238 240 242 243 246
263 272 277 282 280 287 291 279 268 262 254 257 254 258 250 257 237 229 232 233 230 231 226 220 246 245 229 209 221 212 217 222 226 224 228 226 226 229 236 239 241 242 243
277 276 279 289 288 289 288 288 273 271 259 258 258 258 257 258 240 232 232 237 239 239 241 219 238 258 213 203 205 216 221 225 226 227 234 236 233 235 236 242 245 244 236
285 285 288 288 291 289 283 288 291 275 270 265 262 259 258 260 265 238 239 239 244 239 241 223 228 237 241 236 225 226 225 224 224 227 227 231 229 232 235 242 249 255 250
290 292 293 291 292 292 289 290 286 289 290 287 281 267 265 268 275 251 246 252 258 249 240 223 227 235 232 231 238 249 241 239 225 226 232 230 225 221 227 229 244 251 240
305 300 296 296 294 288 284 285 290 291 285 284 280 272 266 280 264 253 255 256 256 259 244 237 229 238 238 239 243 238 248 228 235 242 238 231 218 215 219 224 245 270 250
300 288 285 284 282 279 277 273 268 270 271 271 272 273 275 268 261 269 257 250 262 245 238 242 243 247 255 254 250 251 238 228 229 232 239 237 225 212 221 240 246 252 260
299 293 289 281 273 267 270 272 270 267 270 263 269 275 266 271 272 274 271 248 252 251 251 243 243 247 257 269 264 251 249 238 223 233 233 236 247 222 227 235 248 257 261
290 292 289 289 283 281 281 279 280 280 280 273 261 262 265 262 273 274 267 256 250 235 235 238 251 246 245 255 246 251 255 244 250 237 231 254 256 256 244 242 247 254 258
277 281 285 279 281 289 294 296 291 288 284 281 276 271 258 250 245 249 261 269 258 247 248 249 240 242 255 247 245 245 249 255 254 257 255 259 264 267 256 246 254 260 259
Height
5916 5915 5916 5916 5916 5916 5915 5915 5916 5915 5912 5912 5913 5916 5916 5916 5916 5917 5918 5918 5917 5916 5916 5917 5916 5918 5919 5919 5921 5924 5930 5934 5937 5939 5942 5944 5946 5948 5950 5952 5953 5955 5956
5915 5915 5915 5916 5916 5916 5915 5915 5915 5915 5915 5914 5915 5916 5916 5918 5917 5918 5918 5918 5916 5915 5915 5915 5914 5914 5915 5916 5919 5922 5928 5933 5937 5940 5942 5944 5946 5948 5951 5952 5954 5956 5957
5915 5915 5916 5915 5915 5915 5915 5915 5915 5914 5914 5912 5914 5915 5915 5915 5915 5915 5916 5915 5915 5914 5914 5913 5913 5913 5914 5914 5919 5922 5926 5932 5936 5939 5941 5943 5946 5948 5950 5952 5953 5956 5958
5912 5914 5914 5914 5915 5914 5914 5914 5914 5914 5914 5914 5914 5914 5914 5914 5913 5913 5914 5915 5914 5914 5913 5913 5913 5912 5914 5915 5918 5921 5927 5932 5936 5939 5941 5943 5946 5948 5950 5952 5954 5955 5957
5909 5910 5911 5912 5912 5912 5913 5913 5913 5912 5910 5911 5912 5912 5914 5913 5913 5913 5913 5914 5913 5914 5913 5914 5915 5913 5913 5915 5918 5922 5927 5932 5936 5939 5941 5943 5945 5947 5949 5951 5953 5955 5956
5908 5908 5908 5907 5909 5910 5910 5910 5911 5912 5911 5907 5909 5910 5912 5912 5912 5912 5912 5913 5914 5914 5914 5914 5915 5916 5915 5916 5920 5923 5928 5932 5935 5938 5941 5942 5944 5947 5949 5951 5953 5955 5957
5906 5906 5906 5905 5904 5907 5908 5909 5909 5909 5909 5908 5910 5911 5911 5911 5912 5912 5912 5913 5913 5914 5915 5915 5916 5916 5917 5918 5921 5924 5928 5932 5935 5937 5940 5942 5944 5946 5949 5950 5952 5954 5956
5903 5904 5904 5903 5904 5905 5907 5908 5908 5907 5907 5907 5907 5909 5908 5910 5911 5912 5912 5913 5913 5913 5916 5917 5917 5917 5919 5920 5921 5925 5928 5931 5934 5936 5938 5941 5943 5945 5948 5950 5952 5954 5956
5901 5901 5902 5902 5903 5903 5905 5906 5907 5905 5905 5906 5906 5908 5907 5908 5910 5910 5912 5912 5912 5913 5915 5917 5918 5919 5921 5921 5922 5925 5928 5930 5933 5935 5938 5940 5942 5944 5946 5949 5951 5953 5955
5898 5897 5898 5899 5901 5901 5902 5903 5904 5904 5904 5904 5904 5906 5905 5906 5907 5908 5910 5911 5912 5913 5914 5917 5918 5920 5921 5923 5923 5925 5928 5930 5932 5934 5937 5939 5941 5943 5945 5947 5949 5952 5953
5895 5895 5895 5895 5896 5898 5899 5898 5900 5901 5901 5902 5901 5903 5903 5904 5905 5907 5908 5909 5910 5911 5912 5915 5917 5920 5922 5923 5924 5926 5928 5929 5931 5934 5936 5938 5940 5942 5944 5946 5948 5950 5952
5891 5891 5891 5891 5893 5894 5895 5895 5895 5896 5898 5898 5899 5899 5900 5902 5903 5903 5905 5907 5910 5911 5912 5912 5914 5917 5920 5921 5922 5925 5927 5929 5931 5933 5935 5938 5939 5941 5943 5945 5946 5949 5950
5887 5887 5887 5888 5890 5891 5889 5890 5890 5891 5893 5894 5896 5897 5899 5899 5900 5901 5904 5905 5906 5909 5911 5912 5912 5915 5918 5920 5922 5923 5926 5928 5931 5932 5934 5937 5939 5940 5941 5943 5944 5946 5948
5884 5883 5883 5884 5885 5884 5885 5886 5885 5886 5889 5891 5893 5894 5895 5896 5897 5899 5902 5904 5900 5900 5907 5912 5912 5913 5915 5918 5921 5921 5923 5925 5928 5931 5934 5935 5937 5939 5940 5941 5943 5944 5946
5880 5879 5880 5881 5880 5880 5882 5883 5882 5884 5886 5888 5889 5889 5891 5892 5893 5896 5899 5901 5897 5900 5905 5908 5908 5909 5912 5914 5917 5919 5920 5921 5925 5927 5930 5933 5935 5936 5938 5939 5940 5941 5943
5877 5877 5877 5877 5878 5878 5878 5879 5880 5881 5883 5883 5885 5886 5887 5888 5888 5890 5895 5897 5897 5898 5901 5903 5903 5905 5909 5912 5913 5916 5918 5919 5919 5923 5926 5928 5931 5933 5935 5936 5938 5939 5940
5874 5875 5875 5875 5875 5875 5875 5875 5876 5878 5879 5880 5881 5881 5883 5883 5882 5885 5888 5890 5892 5894 5885 5899 5901 5900 5903 5909 5911 5910 5916 5917 5917 5919 5922 5923 5926 5928 5931 5932 5934 5935 5937
5873 5873 5874 5873 5873 5872 5873 5873 5872 5872 5874 5875 5876 5877 5878 5878 5879 5880 5882 5886 5888 5890 5891 5892 5895 5897 5897 5901 5906 5906 5910 5912 5913 5915 5918 5920 5921 5923 5926 5928 5929 5931 5933
5871 5872 5871 5871 5870 5870 5870 5869 5869 5868 5869 5870 5871 5872 5874 5875 5876 5875 5878 5880 5881 5876 5866 5879 5887 5894 5892 5895 5896 5902 5905 5907 5909 5911 5914 5917 5918 5919 5922 5924 5925 5927 5929
5867 5868 5868 5868 5868 5869 5869 5867 5866 5865 5864 5865 5865 5866 5868 5870 5870 5870 5873 5877 5878 5881 5866 5879 5887 5887 5890 5892 5892 5897 5902 5903 5905 5906 5909 5912 5914 5916 5918 5920 5922 5923 5924
5864 5864 5864 5864 5865 5866 5866 5865 5865 5863 5862 5861 5861 5862 5862 5863 5863 5865 5869 5872 5871 5874 5872 5876 5880 5886 5886 5887 5892 5894 5896 5897 5897 5900 5903 5907 5908 5910 5912 5914 5916 5917 5918
5861 5861 5861 5862 5862 5863 5863 5861 5861 5860 5860 5860 5859 5858 5857 5858 5858 5859 5861 5864 5866 5867 5867 5872 5877 5880 5881 5882 5885 5886 5889 5890 5894 5896 5898 5899 5902 5905 5907 5907 5908 5910 5911
5858 5858 5858 5858 5858 5859 5858 5857 5855 5855 5854 5855 5855 5854 5853 5853 5854 5853 5853 5855 5858 5861 5862 5866 5870 5873 5875 5875 5877 5880 5882 5885 5889 5890 5893 5895 5896 5899 5900 5901 5902 5904 5905
5855 5854 5854 5854 5855 5854 5854 5855 5854 5853 5851 5850 5850 5850 5850 5849 5849 5849 5848 5850 5850 5853 5856 5860 5863 5867 5870 5872 5873 5876 5878 5878 5878 5881 5884 5887 5887 5890 5893 5894 5896 5897 5899
5853 5852 5850 5850 5849 5849 5849 5849 5850 5851 5851 5848 5845 5845 5845 5845 5846 5847 5847 5846 5846 5846 5851 5856 5859 5861 5865 5868 5870 5872 5873 5874 5875 5874 5878 5880 5882 5886 5886 5888 5890 5891 5892
5846 5845 5844 5844 5843 5843 5843 5843 5843 5843 5845 5847 5846 5842 5840 5839 5840 5841 5842 5843 5844 5846 5850 5852 5855 5857 5859 5861 5863 5864 5866 5867 5868 5869 5872 5875 5876 5876 5879 5883 5883 5882 5883